DAIEQ EDXW-EDXW

Flight info

Callsign DAIEQ
Flight time N/A
Altitude
Route
Aircraft SR22T

Departure

Time 2026-04-14 16:59
Airport Westerland Sylt Airport (EDXW)

Arrival

Time N/A
Airport Westerland Sylt Airport (EDXW)
Time Latitude Longitude Altitude Speed Heading
2026-04-14 16:52 54.91207 8.32565 29 ft 0 kts 76°
2026-04-14 16:53 54.91207 8.32567 29 ft 0 kts 77°
2026-04-14 16:54 54.91202 8.32609 30 ft 13 kts 128°
2026-04-14 16:54 54.91110 8.32678 34 ft 17 kts 139°
2026-04-14 16:54 54.91056 8.32892 36 ft 23 kts 117°
2026-04-14 16:55 54.90923 8.33132 34 ft 31 kts 148°
2026-04-14 16:55 54.90728 8.33225 31 ft 23 kts 181°
2026-04-14 16:55 54.90596 8.33243 27 ft 17 kts 178°
2026-04-14 16:55 54.90467 8.33291 28 ft 21 kts 163°
2026-04-14 16:56 54.90338 8.33459 25 ft 26 kts 127°
2026-04-14 16:56 54.90262 8.33758 24 ft 29 kts 100°
2026-04-14 16:56 54.90237 8.34125 24 ft 32 kts 89°
2026-04-14 16:56 54.90274 8.34500 27 ft 31 kts 83°
2026-04-14 16:57 54.90311 8.34881 33 ft 32 kts 85°
2026-04-14 16:57 54.90345 8.35095 36 ft 0 kts 38°
2026-04-14 16:57 54.90346 8.35096 36 ft 0 kts 37°
2026-04-14 16:58 54.90348 8.35098 36 ft 3 kts 41°
2026-04-14 16:58 54.90408 8.35172 37 ft 16 kts 349°
2026-04-14 16:58 54.90616 8.34922 36 ft 73 kts 325°
2026-04-14 16:59 54.91063 8.34281 261 ft 88 kts 310°
2026-04-14 16:59 54.91475 8.33461 480 ft 98 kts 299°
2026-04-14 16:59 54.91701 8.32336 725 ft 103 kts 261°
2026-04-14 16:59 54.91209 8.31501 951 ft 105 kts 186°
2026-04-14 17:00 54.90495 8.31808 1149 ft 121 kts 145°
2026-04-14 17:00 54.89875 8.32765 1553 ft 107 kts 131°
2026-04-14 17:00 54.89352 8.33978 1322 ft 156 kts 127°
2026-04-14 17:00 54.88632 8.35482 902 ft 163 kts 131°
2026-04-14 17:01 54.88759 8.37001 701 ft 130 kts 14°
2026-04-14 17:01 54.89464 8.36238 397 ft 112 kts 329°
2026-04-14 17:01 54.90099 8.35546 164 ft 108 kts 327°
2026-04-14 17:01 54.90703 8.34824 50 ft 96 kts 324°
2026-04-14 17:02 54.91293 8.34056 226 ft 115 kts 321°
2026-04-14 17:02 54.91872 8.33241 396 ft 102 kts 319°
2026-04-14 17:02 54.92261 8.32266 351 ft 106 kts 258°
2026-04-14 17:02 54.91950 8.31176 416 ft 99 kts 209°
2026-04-14 17:03 54.91291 8.31450 380 ft 105 kts 136°
2026-04-14 17:03 54.90815 8.32441 369 ft 108 kts 133°
2026-04-14 17:03 54.90279 8.33345 362 ft 104 kts 140°
2026-04-14 17:03 54.89776 8.34147 249 ft 87 kts 137°
2026-04-14 17:04 54.89740 8.35055 220 ft 88 kts 46°
2026-04-14 17:04 54.90372 8.35200 125 ft 128 kts 326°
2026-04-14 17:04 54.91179 8.34190 73 ft 151 kts 323°
2026-04-14 17:04 54.91925 8.33261 448 ft 120 kts 313°
2026-04-14 17:05 54.91858 8.32008 373 ft 121 kts 214°
2026-04-14 17:05 54.91139 8.32276 402 ft 106 kts 140°
2026-04-14 17:05 54.90580 8.33098 294 ft 105 kts 139°
2026-04-14 17:05 54.90090 8.33999 220 ft 102 kts 130°
2026-04-14 17:06 54.89821 8.35013 169 ft 93 kts 52°
2026-04-14 17:06 54.90466 8.35067 89 ft 119 kts 326°
2026-04-14 17:06 54.91217 8.34153 112 ft 143 kts 323°
2026-04-14 17:06 54.92014 8.33112 316 ft 131 kts 322°
2026-04-14 17:07 54.92739 8.33088 445 ft 109 kts 34°
2026-04-14 17:07 54.93223 8.34030 265 ft 120 kts 88°
2026-04-14 17:07 54.92768 8.35031 323 ft 104 kts 153°
2026-04-14 17:07 54.92229 8.35844 297 ft 100 kts 136°
2026-04-14 17:08 54.91709 8.36562 264 ft 98 kts 180°
2026-04-14 17:08 54.91269 8.35843 225 ft 86 kts 248°
2026-04-14 17:08 54.90732 8.35586 128 ft 83 kts 178°